[[{"header":{"parameterUnit":"m.s-1","parameterCategory":1,"la1":30.2991,"la2":30.254,"lo1":-89.0895,"lo2":-89.0444,"dy":0.0017,"dx":0.0017,"nx":28,"ny":28,"refTime":"2023-11-08T03:00:00:Z","depth":0,"parameterNumber":2,"parameterNumberName":"U-component_of_WINDS"},"data":[0,0,0,0,0,0,0,0,0,0,0,0,0,0,0,0,0,0,0,0,0,0,0,0,0,0,0,0,0,0,0,0,0,0,0,0,0,0,0,0,0,0,0,0,0,0,0,0,0,0,0,0,0,0,0,0,0,0,-1.008,-1.008,0,-1.0109,-1.0109,-1.011,-1.0073,-1.0071,-1.007,-1.0069,-1.0098,-1.01,-1.0102,0,0,0,0,0,0,0,0,0,0,0,0,0,-0.9991,-0.9993,-1.008,-1.008,-1.0081,-1.0109,-1.0109,-1.011,-1.0073,-1.0071,-1.007,-1.0068,-1.0097,-1.01,-1.0102,0,0,0,0,0,0,0,0,0,0,0,0,0,-1.0026,-0.9993,-1.008,-1.0066,-1.0065,-1.0109,-1.0109,-1.011,-1.0073,-1.0071,-1.0069,-1.0067,-1.0097,-1.01,-1.0103,-1.0162,0,0,-1.0112,-1.0113,0,0,0,0,0,0,0,0,-1.0024,-1.0029,-1.0067,-1.0067,-1.0066,-1.0085,-1.0089,-1.0127,-1.0074,-1.007,-1.0069,-1.0066,-1.0095,-1.0098,-1.0108,-1.0164,-1.0165,-1.0112,-1.0114,-1.0115,-1.0116,0,0,0,0,0,0,0,-1.0022,-1.0028,-1.0091,-1.0068,-1.0067,-1.0057,-1.006,-1.0096,-1.0094,-1.007,-1.0067,-1.0071,-1.0095,-1.0106,-1.0109,-1.0165,-1.0112,-1.0115,-1.0117,-1.0118,-1.027,-1.0272,0,0,0,0,0,0,-1.0021,-1.0026,-1.009,-1.0092,-1.0039,-1.0061,-1.0064,-1.0081,-1.0093,-1.0093,-1.0073,-1.007,-1.0101,-1.0105,-1.011,-1.018,-1.0115,-1.0118,-1.012,-1.0268,-1.0271,-1.0273,0,0,0,0,0,0,-1.0019,-1.0027,-1.0089,-1.0058,-1.0066,-1.0064,-1.0084,-1.0083,-1.0093,-1.0096,-1.0095,-1.0085,-1.01,-1.0105,-1.0149,-1.0181,-1.012,-1.0123,-1.0266,-1.0269,-1.0272,-1.0322,0,0,0,0,0,0,-1.0017,-1.0027,-1.005,-1.0059,-1.0067,-1.0129,-1.0086,-1.0085,-1.0099,-1.0095,-1.0106,-1.0106,-1.0099,-1.0145,-1.0152,-1.0184,-1.0125,-1.0263,-1.0267,-1.0271,-1.0318,-1.0327,-1.0334,0,0,0,0,0,-1.0014,-1.0062,-1.0051,-1.0059,-1.0096,-1.0131,-1.0135,-1.0126,-1.0102,-1.0125,-1.0126,-1.0106,-1.0176,-1.015,-1.0158,-1.0191,-1.0261,-1.0266,-1.0271,-1.0314,-1.0325,-1.0334,0,0,0,0,0,0,-1.0057,-1.0063,-1.0051,-1.0104,-1.0117,-1.0125,-1.0153,-1.0138,-1.0158,-1.0153,-1.014,-1.0143,-1.019,-1.0194,-1.0165,-1.0249,-1.0214,-1.0221,-1.0244,-1.0255,-1.0263,-1.0261,-1.0127,0,0,0,0,0,-1.0072,-1.01,-1.0104,-1.0151,-1.0158,-1.0155,-1.0169,-1.0161,-1.0174,-1.0179,-1.0183,-1.0197,-1.0221,-1.0238,-1.0261,-1.0318,-1.032,-1.0344,-1.0352,-1.0359,-1.0366,-1.0396,-1.0407,-1.029,-1.029,-1.0289,0,0,-1.0105,-1.0112,-1.0131,-1.016,-1.0169,-1.0198,-1.016,-1.0192,-1.0213,-1.0184,-1.0226,-1.023,-1.0243,-1.0294,-1.0316,-1.0299,-1.0398,-1.0366,-1.0371,-1.0374,-1.0402,-1.0413,-1.0423,-1.0293,-1.0292,-1.0292,0,0,-1.0179,-1.0188,-1.0227,-1.0237,-1.0251,-1.0248,-1.0258,-1.0268,-1.0269,-1.0311,-1.0289,-1.0314,-1.0357,-1.0368,-1.0379,-1.0457,-1.0439,-1.0464,-1.0509,-1.0538,-1.0547,-1.0555,-1.0583,-1.0593,-1.047,-1.0471,-1.0471,0,-1.0218,-1.0261,-1.025,-1.0284,-1.0297,-1.0271,-1.0311,-1.0321,-1.0342,-1.0352,-1.0332,-1.0386,-1.0393,-1.0446,-1.0465,-1.0475,-1.0485,-1.0463,-1.0547,-1.0555,-1.0562,-1.0589,-1.0599,-1.0474,-1.0473,-1.0473,-1.0473,0,-1.0308,-1.0339,-1.0369,-1.039,-1.0407,-1.0443,-1.0437,-1.0455,-1.0445,-1.0444,-1.0486,-1.0494,-1.0518,-1.053,-1.052,-1.0581,-1.057,-1.0549,-1.0514,-1.0577,-1.0601,-1.0611,-1.0478,-1.0477,-1.0476,-1.0475,0,0,-1.0412,-1.0425,-1.0437,-1.0446,-1.0459,-1.0482,-1.0517,-1.0541,-1.0557,-1.0572,-1.0601,-1.0638,-1.0618,-1.0631,-1.0622,-1.0647,-1.0708,-1.0623,-1.0623,-1.0639,-1.0776,-1.0792,-1.0804,-1.0697,-1.0698,-1.07,-1.0775,0,-1.0487,-1.0548,-1.0538,-1.0598,-1.0625,-1.0601,-1.0631,-1.0643,-1.0643,-1.0666,-1.0665,-1.0692,-1.0664,-1.0671,-1.0695,-1.0696,-1.0736,-1.069,-1.0724,-1.0725,-1.0722,-1.0817,-1.0834,-1.0905,-1.0784,-1.0786,-1.0787,0,-1.0583,-1.0601,-1.0663,-1.0672,-1.0683,-1.0711,-1.0732,-1.0754,-1.0766,-1.0764,-1.0778,-1.0764,-1.0798,-1.0763,-1.081,-1.0779,-1.0792,-1.0794,-1.0797,-1.08,-1.076,-1.0823,-1.0927,-1.0938,-1.0802,-1.0801,-1.08,0,-1.0652,-1.0693,-1.0735,-1.0743,-1.0755,-1.0775,-1.078,-1.079,-1.0805,-1.0822,-1.0832,-1.0853,-1.0865,-1.0882,-1.0874,-1.0848,-1.0923,-1.0886,-1.0922,-1.0922,-1.0939,-1.0939,-1.1047,-1.0947,-1.0947,-1.0947,-1.0947,0,-1.0737,-1.0776,-1.0766,-1.0793,-1.0835,-1.0823,-1.0866,-1.0868,-1.0877,-1.0903,-1.0883,-1.0908,-1.0895,-1.0919,-1.0913,-1.0953,-1.0958,-1.0958,-1.0956,-1.096,-1.096,-1.0968,-1.0963,-1.095,-1.0949,-1.0948,-1.0948,0,-1.0823,-1.0818,-1.0862,-1.0869,-1.0871,-1.0903,-1.0908,-1.0932,-1.093,-1.0963,-1.097,-1.0967,-1.0993,-1.0987,-1.1016,-1.1012,-1.1062,-1.1054,-1.1059,-1.1057,-1.1093,-1.109,-1.1211,-1.1226,-1.1116,-1.1117,-1.1118,0,-1.0878,-1.0907,-1.0917,-1.0933,-1.094,-1.0966,-1.098,-1.0969,-1.0985,-1.1001,-1.1023,-1.1048,-1.1067,-1.1111,-1.1111,-1.1133,-1.1125,-1.1166,-1.1128,-1.1131,-1.1126,-1.1124,-1.1127,-1.1174,-1.1175,-1.1176,-1.1177,0,-1.0976,-1.0972,-1.0994,-1.1015,-1.1033,-1.1049,-1.1063,-1.1077,-1.1067,-1.1086,-1.1113,-1.1128,-1.1158,-1.1182,-1.1202,-1.1207,-1.1191,-1.1189,-1.1198,-1.1203,-1.1204,-1.1204,-1.108,-1.1186,-1.1185,-1.1184,-1.1184,-1.1184,-1.1048,-1.1073,-1.1083,-1.1108,-1.1118,-1.1131,-1.1154,-1.1155,-1.1177,-1.1201,-1.1192,-1.1223,-1.1233,-1.1259,-1.1266,-1.129,-1.1274,-1.1288,-1.1291,-1.1295,-1.13,-1.12,-1.1293,-1.1293,-1.1293,-1.1293,-1.1292,0,-1.1145,-1.115,-1.1174,-1.1194,-1.1214,-1.1196,-1.121,-1.1228,-1.1255,-1.1266,-1.1286,-1.1316,-1.134,-1.1342,-1.1364,-1.1383,-1.1375,-1.1389,-1.1387,-1.1389,-1.1312,-1.1302,-1.1394,-1.1394,-1.1394,-1.1394,-1.1394,-1.1394,-1.1198,-1.1239,-1.1236,-1.1281,-1.1286,-1.1317,-1.1326,-1.1339,-1.1347,-1.1383,-1.1402,-1.1403,-1.141,-1.1433,-1.1453,-1.1453,-1.1462,-1.1479,-1.1476,-1.1404,-1.1394,-1.1385,-1.1375,-1.1481,-1.1481,-1.155,-1.1551,-1.1551]},{"header":{"parameterUnit":"m.s-1","parameterCategory":1,"la1":30.2991,"la2":30.254,"lo1":-89.0895,"lo2":-89.0444,"dy":0.0017,"dx":0.0017,"nx":28,"ny":28,"refTime":"2023-11-08T03:00:00:Z","depth":0,"parameterNumber":3,"parameterNumberName":"V-component_of_WINDS"},"data":[0,0,0,0,0,0,0,0,0,0,0,0,0,0,0,0,0,0,0,0,0,0,0,0,0,0,0,0,0,0,0,0,0,0,0,0,0,0,0,0,0,0,0,0,0,0,0,0,0,0,0,0,0,0,0,0,0,0,-0.4056,-0.4056,0,-0.406,-0.406,-0.4061,-0.4036,-0.4036,-0.4035,-0.4034,-0.4039,-0.404,-0.4041,0,0,0,0,0,0,0,0,0,0,0,0,0,-0.4027,-0.4028,-0.4056,-0.4056,-0.4056,-0.406,-0.406,-0.4061,-0.4036,-0.4036,-0.4035,-0.4034,-0.4039,-0.404,-0.4041,0,0,0,0,0,0,0,0,0,0,0,0,0,-0.4037,-0.4028,-0.4056,-0.4045,-0.4044,-0.406,-0.4061,-0.4061,-0.4037,-0.4036,-0.4035,-0.4034,-0.4038,-0.404,-0.4041,-0.4069,0,0,-0.4044,-0.4045,0,0,0,0,0,0,0,0,-0.4036,-0.4038,-0.4046,-0.4046,-0.4045,-0.4047,-0.4052,-0.4063,-0.4037,-0.4039,-0.4034,-0.4033,-0.4043,-0.4043,-0.4046,-0.4069,-0.4069,-0.4044,-0.4045,-0.4046,-0.4046,0,0,0,0,0,0,0,-0.4036,-0.4037,-0.4058,-0.4047,-0.4045,-0.4039,-0.404,-0.4054,-0.4047,-0.4039,-0.4037,-0.4038,-0.4042,-0.4045,-0.4046,-0.4069,-0.4044,-0.4045,-0.4046,-0.4047,-0.4114,-0.4115,0,0,0,0,0,0,-0.4036,-0.4037,-0.4058,-0.4058,-0.4038,-0.4041,-0.4041,-0.4047,-0.4047,-0.4045,-0.4039,-0.4037,-0.4044,-0.4045,-0.4046,-0.4078,-0.4046,-0.4047,-0.4047,-0.4113,-0.4114,-0.4116,0,0,0,0,0,0,-0.4036,-0.4039,-0.4058,-0.4047,-0.4049,-0.4042,-0.405,-0.4048,-0.4051,-0.4046,-0.4045,-0.4044,-0.4043,-0.4045,-0.4063,-0.4078,-0.4047,-0.4048,-0.4112,-0.4113,-0.4115,-0.4143,0,0,0,0,0,0,-0.4035,-0.4038,-0.4049,-0.4048,-0.405,-0.4075,-0.405,-0.4049,-0.4053,-0.4051,-0.4051,-0.405,-0.4042,-0.4062,-0.4064,-0.4079,-0.4049,-0.411,-0.4112,-0.4114,-0.4141,-0.4146,-0.415,0,0,0,0,0,-0.4034,-0.4057,-0.405,-0.4052,-0.4063,-0.4075,-0.4077,-0.4068,-0.4055,-0.4065,-0.4062,-0.405,-0.4076,-0.4064,-0.4067,-0.4082,-0.4109,-0.4112,-0.4114,-0.4139,-0.4145,-0.415,0,0,0,0,0,0,-0.4061,-0.4057,-0.4049,-0.4072,-0.4074,-0.4071,-0.4084,-0.4074,-0.408,-0.4078,-0.4066,-0.4067,-0.4087,-0.4086,-0.4072,-0.4109,-0.409,-0.4094,-0.4108,-0.4114,-0.4118,-0.4118,-0.405,0,0,0,0,0,-0.407,-0.408,-0.4076,-0.4097,-0.4098,-0.4091,-0.4096,-0.4089,-0.4091,-0.4092,-0.409,-0.4093,-0.4102,-0.4108,-0.4116,-0.4141,-0.414,-0.4153,-0.4157,-0.4161,-0.4164,-0.4176,-0.4182,-0.4124,-0.4124,-0.4124,0,0,-0.4088,-0.4087,-0.4094,-0.4102,-0.4103,-0.4114,-0.4092,-0.4105,-0.4113,-0.4094,-0.4111,-0.411,-0.4112,-0.4134,-0.4143,-0.4134,-0.418,-0.4164,-0.4167,-0.4168,-0.418,-0.4185,-0.419,-0.4125,-0.4125,-0.4125,0,0,-0.4126,-0.4127,-0.4144,-0.4145,-0.4146,-0.4141,-0.4146,-0.4144,-0.4142,-0.4159,-0.4145,-0.4154,-0.417,-0.4172,-0.4175,-0.4213,-0.4202,-0.4216,-0.4239,-0.4251,-0.4256,-0.426,-0.4273,-0.4278,-0.4219,-0.4219,-0.4219,0,-0.4149,-0.4165,-0.4154,-0.4167,-0.4171,-0.4154,-0.4171,-0.4173,-0.4177,-0.418,-0.4169,-0.4188,-0.4188,-0.421,-0.4219,-0.4222,-0.4226,-0.4216,-0.4256,-0.426,-0.4264,-0.4276,-0.4281,-0.422,-0.422,-0.422,-0.422,0,-0.4192,-0.4203,-0.4216,-0.422,-0.4226,-0.4241,-0.4232,-0.4239,-0.4231,-0.4227,-0.4244,-0.4244,-0.4251,-0.4255,-0.4248,-0.4276,-0.427,-0.4258,-0.4239,-0.4271,-0.4282,-0.4287,-0.4223,-0.4222,-0.4222,-0.4221,0,0,-0.4248,-0.4245,-0.425,-0.4251,-0.4251,-0.426,-0.4274,-0.428,-0.4286,-0.4289,-0.4301,-0.4314,-0.4303,-0.4306,-0.4299,-0.431,-0.4339,-0.4296,-0.4296,-0.4304,-0.4369,-0.4378,-0.4384,-0.4332,-0.4333,-0.4333,-0.4369,0,-0.4285,-0.4309,-0.4299,-0.4324,-0.4334,-0.4317,-0.4329,-0.4331,-0.4327,-0.4335,-0.4331,-0.4341,-0.4325,-0.4327,-0.4337,-0.4334,-0.4352,-0.4331,-0.4342,-0.4343,-0.4342,-0.439,-0.4399,-0.4433,-0.4373,-0.4374,-0.4375,0,-0.4331,-0.4336,-0.4361,-0.4359,-0.4363,-0.4374,-0.4379,-0.4387,-0.4388,-0.4384,-0.4388,-0.4378,-0.4391,-0.4373,-0.4391,-0.4377,-0.4381,-0.438,-0.4381,-0.4381,-0.4361,-0.4391,-0.4444,-0.4448,-0.4382,-0.4381,-0.4381,0,-0.4369,-0.4382,-0.4398,-0.44,-0.4398,-0.4406,-0.4405,-0.4405,-0.4409,-0.4414,-0.4416,-0.4422,-0.4426,-0.4431,-0.4422,-0.441,-0.4442,-0.4423,-0.4439,-0.4439,-0.4447,-0.4446,-0.45,-0.445,-0.445,-0.445,-0.4449,0,-0.4411,-0.4427,-0.4415,-0.4425,-0.4443,-0.4432,-0.4449,-0.4447,-0.4447,-0.4456,-0.4442,-0.4452,-0.444,-0.4448,-0.4442,-0.4458,-0.446,-0.4457,-0.4455,-0.4458,-0.4458,-0.4461,-0.4458,-0.4451,-0.4451,-0.445,-0.445,0,-0.4456,-0.4449,-0.4466,-0.4462,-0.4461,-0.4474,-0.4471,-0.448,-0.4475,-0.4487,-0.449,-0.4482,-0.4491,-0.4483,-0.4492,-0.4487,-0.4508,-0.4503,-0.4508,-0.4506,-0.4523,-0.4522,-0.458,-0.4587,-0.4533,-0.4533,-0.4534,0,-0.4484,-0.4495,-0.4493,-0.4498,-0.4498,-0.4507,-0.4511,-0.45,-0.4505,-0.4506,-0.4515,-0.4523,-0.4528,-0.4543,-0.4538,-0.4545,-0.4539,-0.4559,-0.454,-0.4543,-0.4539,-0.4538,-0.4539,-0.4563,-0.4564,-0.4564,-0.4565,0,-0.4533,-0.4528,-0.4534,-0.4539,-0.4545,-0.4548,-0.4551,-0.4556,-0.4545,-0.4551,-0.4559,-0.4563,-0.4572,-0.4579,-0.4584,-0.4583,-0.4572,-0.4571,-0.4575,-0.4578,-0.458,-0.4579,-0.4518,-0.4569,-0.4569,-0.4569,-0.4568,-0.4568,-0.4569,-0.4579,-0.4578,-0.4586,-0.4586,-0.4589,-0.4597,-0.4593,-0.46,-0.4605,-0.4599,-0.4609,-0.4609,-0.4614,-0.4615,-0.4622,-0.4614,-0.462,-0.4622,-0.4623,-0.4625,-0.4579,-0.4623,-0.4623,-0.4623,-0.4623,-0.4623,0,-0.4617,-0.4616,-0.4623,-0.4626,-0.4632,-0.4621,-0.4623,-0.4628,-0.4637,-0.4638,-0.4643,-0.4653,-0.466,-0.4656,-0.4662,-0.4669,-0.4664,-0.4671,-0.467,-0.467,-0.4633,-0.4628,-0.4674,-0.4674,-0.4674,-0.4674,-0.4674,-0.4674,-0.4643,-0.4658,-0.4653,-0.4669,-0.4667,-0.4677,-0.4679,-0.4681,-0.4681,-0.4692,-0.4698,-0.4695,-0.4694,-0.4699,-0.4705,-0.4704,-0.4707,-0.4715,-0.4712,-0.4677,-0.4672,-0.4668,-0.4663,-0.4716,-0.4716,-0.4748,-0.4748,-0.4749]}]]